Regional Weather Roundup
Issued by NWS Sioux Falls, SD

Home | Current Version | Previous Version | Text Only | Print | Product List | Glossary Off
Versions: 1 2 3 4 5 6 7 8 9 10 11 12 13 14 15 16 17 18 19 20 21 22 23 24 25 26 27 28 29 30 31 32 33 34 35 36 37 38 39 40 41 42 43 44 45 46 47 48 49 50

000
ASUS43 KFSD 282210
RWRFSD

WEATHER ROUNDUP FOR SE SOUTH DAKOTA/SW MINNESOTA/NW IOWA
NATIONAL WEATHER SERVICE SIOUX FALLS SD
500 PM CDT TUE JUL 28 2015

NOTE: "FAIR" INDICATES FEW OR NO CLOUDS BELOW 12,000 FEET WITH NO
SIGNIFICANT WEATHER AND OR OBSTRUCTIONS TO VISIBILITY.


SDZ038>040-050-052>070-282300-
SOUTHEAST SOUTH DAKOTA

CITY           SKY/WX    TMP DP  RH WIND       PRES   REMARKS
BROOKINGS      SUNNY     75  57  53 W18G26    29.91S
CHAMBERLAIN    SUNNY     81  48  31 W21       29.96R
HURON          SUNNY     80  53  39 W23G30    29.90S
MADISON        FAIR      75  55  50 NW20G28   29.92S
MITCHELL       SUNNY     81  51  35 W21G26    29.93S
SIOUX FALLS    MOSUNNY   79  57  46 NW18G25   29.92R
WINNER         FAIR      82  45  27 NW15G23   29.99S
YANKTON        SUNNY     81  55  41 MISG      29.93S
$$

MNZ071-072-080-081-089-090-097-098-282300-
SOUTHWEST MINNESOTA

CITY           SKY/WX    TMP DP  RH WIND       PRES   REMARKS
FAIRMONT       CLOUDY    79  68  69 SW10      29.88R
JACKSON        CLOUDY    77  72  83 W8        29.91S
LUVERNE        SUNNY     79  55  44 NW10      29.92S
MARSHALL       SUNNY     79  55  44 NW14      29.88R
MONTEVIDEO     SUNNY     82  63  51 NW14G21   29.86R
PIPESTONE      SUNNY     77  61  57 W13G18    29.92R
REDWOOD FALLS  SUNNY     82  63  52 W15       29.85R
TRACY          SUNNY     81  59  47 W7        29.89R
WINDOM         CLOUDY    77  72  83 SW7       29.90R
WORTHINGTON    MOSUNNY   79  61  53 W14       29.92R
$$

IAZ001>003-012>014-020>022-031-032-NEZ013-014-SDZ071-282300-
NORTHWEST IOWA

CITY           SKY/WX    TMP DP  RH WIND       PRES   REMARKS
CHEROKEE       CLOUDY    73  73  98 CALM      29.92S
DENISON        CLOUDY    81  79  94 NW5       29.88S
ESTHERVILLE    CLOUDY    77  72  84 W12G17    29.90R
LE MARS        CLOUDY    77  66  69 NW7       29.94R
ORANGE CITY    MOSUNNY   79  63  57 NW12      29.93S
SHELDON        MOSUNNY   79  64  61 NW12      29.92R
SIOUX CITY     CLOUDY    80  67  64 NW8       29.93R
SPENCER        LGT RAIN  75  71  87 W9        29.91S
STORM LAKE     DRIZZLE   72  72 100 NW10      29.94R
$$

ABBREVIATIONS USED IN REMARKS
   TC - TEMPERATURE IN CELSIUS
  WCI - WIND CHILL INDEX
   HX - HEAT INDEX
  VSB - VISIBILITY



USA.gov is the U.S. government's official web portal to all federal, state and local government web resources and services.